DAL535 KATL-KMCO

Flight info

Callsign DAL535
Flight time 1h 0m
Altitude 35000
Route SMLTZ3 WALET DCT ZJAYX GRNCH5
Aircraft A321/M-SDE3FGHIRWY/LB1

Departure

Time 2026-05-05 00:30
Airport Hartsfield Jackson Atlanta International Airport (KATL)

Arrival

Time 2026-05-05 01:30
Airport Orlando International Airport (KMCO)
Time Latitude Longitude Altitude Speed Heading
2026-05-05 00:02 33.63810 -84.42878 1036 ft 0 kts 288°
2026-05-05 00:18 33.63809 -84.42876 1035 ft 2 kts 288°
2026-05-05 00:18 33.63803 -84.42847 1035 ft 4 kts 270°
2026-05-05 00:19 33.63808 -84.42819 1035 ft 4 kts 226°
2026-05-05 00:19 33.63822 -84.42809 1035 ft 0 kts 180°
2026-05-05 00:22 33.63794 -84.42809 1035 ft 10 kts 180°
2026-05-05 00:22 33.63721 -84.42810 1035 ft 10 kts 180°
2026-05-05 00:22 33.63668 -84.42780 1035 ft 8 kts 118°
2026-05-05 00:22 33.63665 -84.42727 1036 ft 5 kts 92°
2026-05-05 00:23 33.63663 -84.42689 1036 ft 4 kts 93°
2026-05-05 00:23 33.63662 -84.42661 1036 ft 5 kts 93°
2026-05-05 00:23 33.63658 -84.42582 1036 ft 11 kts 92°
2026-05-05 00:23 33.63656 -84.42494 1036 ft 10 kts 92°
2026-05-05 00:24 33.63657 -84.42416 1036 ft 9 kts 87°
2026-05-05 00:24 33.63658 -84.42349 1036 ft 8 kts 95°
2026-05-05 00:24 33.63658 -84.42234 1036 ft 17 kts 90°
2026-05-05 00:24 33.63656 -84.42099 1036 ft 16 kts 91°
2026-05-05 00:25 33.63655 -84.41972 1035 ft 15 kts 91°
2026-05-05 00:25 33.63654 -84.41852 1035 ft 14 kts 90°
2026-05-05 00:25 33.63653 -84.41743 1035 ft 13 kts 90°
2026-05-05 00:25 33.63653 -84.41643 1035 ft 11 kts 90°
2026-05-05 00:26 33.63653 -84.41552 1035 ft 10 kts 90°
2026-05-05 00:26 33.63652 -84.41470 1035 ft 9 kts 90°
2026-05-05 00:26 33.63652 -84.41397 1035 ft 9 kts 90°
2026-05-05 00:26 33.63653 -84.41284 1035 ft 15 kts 90°
2026-05-05 00:27 33.63653 -84.41168 1035 ft 13 kts 90°
2026-05-05 00:27 33.63654 -84.41064 1035 ft 12 kts 90°
2026-05-05 00:27 33.63654 -84.40969 1035 ft 11 kts 90°
2026-05-05 00:27 33.63615 -84.40910 1035 ft 7 kts 159°
2026-05-05 00:28 33.63571 -84.40912 1035 ft 6 kts 179°
2026-05-05 00:28 33.63496 -84.40914 1036 ft 12 kts 194°
2026-05-05 00:28 33.63473 -84.40986 1036 ft 9 kts 270°
2026-05-05 00:28 33.63472 -84.41121 1034 ft 30 kts 269°
2026-05-05 00:29 33.63467 -84.41645 1034 ft 94 kts 270°
2026-05-05 00:29 33.63456 -84.42643 1035 ft 143 kts 271°
2026-05-05 00:29 33.63471 -84.43991 1052 ft 178 kts 266°
2026-05-05 00:29 33.63466 -84.45457 1626 ft 171 kts 268°
2026-05-05 00:30 33.63483 -84.46912 2078 ft 178 kts 268°
2026-05-05 00:30 33.63520 -84.48424 2541 ft 184 kts 269°
2026-05-05 00:30 33.63575 -84.49966 3012 ft 189 kts 270°
2026-05-05 00:30 33.63627 -84.51602 3375 ft 202 kts 268°
2026-05-05 00:31 33.63634 -84.53328 3716 ft 210 kts 267°
2026-05-05 00:31 33.63637 -84.55118 4029 ft 221 kts 266°
2026-05-05 00:31 33.63611 -84.57039 4145 ft 243 kts 265°
2026-05-05 00:31 33.63557 -84.59180 4451 ft 264 kts 266°
2026-05-05 00:32 33.63529 -84.61384 5120 ft 269 kts 267°
2026-05-05 00:32 33.63335 -84.63618 5882 ft 269 kts 250°
2026-05-05 00:32 33.62493 -84.65632 6665 ft 267 kts 233°
2026-05-05 00:32 33.61260 -84.67242 7420 ft 268 kts 218°
2026-05-05 00:33 33.59653 -84.68404 8096 ft 272 kts 209°
2026-05-05 00:33 33.57890 -84.69281 8728 ft 278 kts 193°
2026-05-05 00:33 33.55939 -84.69444 9397 ft 285 kts 177°
2026-05-05 00:33 33.53971 -84.69042 9888 ft 290 kts 171°
2026-05-05 00:34 33.51980 -84.68614 10076 ft 291 kts 173°
2026-05-05 00:34 33.49978 -84.68230 10735 ft 292 kts 173°
2026-05-05 00:34 33.47963 -84.67865 11401 ft 295 kts 174°
2026-05-05 00:34 33.45921 -84.67499 12046 ft 298 kts 173°
2026-05-05 00:35 33.43871 -84.67083 12678 ft 302 kts 167°
2026-05-05 00:35 33.41895 -84.66168 13306 ft 309 kts 153°
2026-05-05 00:35 33.40098 -84.64603 13511 ft 331 kts 137°
2026-05-05 00:35 33.38411 -84.62602 13643 ft 351 kts 137°
2026-05-05 00:36 33.36638 -84.60495 13918 ft 365 kts 137°
2026-05-05 00:36 33.34821 -84.58338 14403 ft 370 kts 137°
2026-05-05 00:36 33.32976 -84.56148 14951 ft 374 kts 137°
2026-05-05 00:36 33.31118 -84.53950 15507 ft 378 kts 137°
2026-05-05 00:37 33.29247 -84.51743 16053 ft 381 kts 137°
2026-05-05 00:37 33.27370 -84.49530 16593 ft 385 kts 138°
2026-05-05 00:37 33.25450 -84.47264 17132 ft 388 kts 138°
2026-05-05 00:37 33.23525 -84.44998 17673 ft 392 kts 138°
2026-05-05 00:38 33.21566 -84.42694 18185 ft 396 kts 138°
2026-05-05 00:38 33.19597 -84.40377 18670 ft 399 kts 138°
2026-05-05 00:38 33.17611 -84.38043 19106 ft 403 kts 138°
2026-05-05 00:38 33.15608 -84.35697 19544 ft 406 kts 139°
2026-05-05 00:39 33.13581 -84.33324 19977 ft 409 kts 138°
2026-05-05 00:39 33.11545 -84.30932 20410 ft 413 kts 138°
2026-05-05 00:39 33.09489 -84.28522 20834 ft 416 kts 138°
2026-05-05 00:39 33.07413 -84.26094 21251 ft 419 kts 138°
2026-05-05 00:40 33.05325 -84.23654 21676 ft 422 kts 138°
2026-05-05 00:40 33.03215 -84.21190 22109 ft 426 kts 138°
2026-05-05 00:40 33.01005 -84.18828 22538 ft 426 kts 146°
2026-05-05 00:40 32.98512 -84.16937 22923 ft 425 kts 156°
2026-05-05 00:41 32.95795 -84.15574 23309 ft 424 kts 165°
2026-05-05 00:41 32.92994 -84.14428 23689 ft 427 kts 165°
2026-05-05 00:41 32.90173 -84.13273 24020 ft 430 kts 165°
2026-05-05 00:41 32.87336 -84.12110 24369 ft 433 kts 165°
2026-05-05 00:42 32.84480 -84.10932 24706 ft 435 kts 165°
2026-05-05 00:42 32.81647 -84.09764 25026 ft 438 kts 165°
2026-05-05 00:42 32.78754 -84.08576 25360 ft 440 kts 165°
2026-05-05 00:42 32.75851 -84.07378 25669 ft 443 kts 165°
2026-05-05 00:43 32.72935 -84.06177 26005 ft 445 kts 165°
2026-05-05 00:43 32.70002 -84.04970 26322 ft 447 kts 165°
2026-05-05 00:43 32.67044 -84.03755 26641 ft 450 kts 165°
2026-05-05 00:43 32.64072 -84.02540 26948 ft 453 kts 165°
2026-05-05 00:44 32.61089 -84.01322 27264 ft 455 kts 165°
2026-05-05 00:44 32.58088 -84.00095 27570 ft 457 kts 165°
2026-05-05 00:44 32.55059 -83.98861 27889 ft 460 kts 166°
2026-05-05 00:44 32.52027 -83.97628 28189 ft 462 kts 166°
2026-05-05 00:45 32.49004 -83.96397 28469 ft 465 kts 166°
2026-05-05 00:45 32.45933 -83.95145 28742 ft 467 kts 166°
2026-05-05 00:45 32.42842 -83.93883 29008 ft 470 kts 166°
2026-05-05 00:45 32.39751 -83.92622 29274 ft 472 kts 165°
2026-05-05 00:46 32.36714 -83.91069 29515 ft 480 kts 156°
2026-05-05 00:46 32.33865 -83.88936 29752 ft 488 kts 147°
2026-05-05 00:46 32.31158 -83.86504 30008 ft 490 kts 147°
2026-05-05 00:46 32.28422 -83.84066 30243 ft 493 kts 147°
2026-05-05 00:47 32.25676 -83.81631 30451 ft 495 kts 147°
2026-05-05 00:47 32.22963 -83.79233 30743 ft 495 kts 147°
2026-05-05 00:47 32.20190 -83.76787 30982 ft 497 kts 147°
2026-05-05 00:47 32.17412 -83.74335 31231 ft 498 kts 147°
2026-05-05 00:48 32.14642 -83.71890 31483 ft 499 kts 147°
2026-05-05 00:48 32.11842 -83.69421 31722 ft 501 kts 147°
2026-05-05 00:48 32.09035 -83.66951 31969 ft 502 kts 148°
2026-05-05 00:48 32.06239 -83.64490 32203 ft 504 kts 148°
2026-05-05 00:49 32.03424 -83.62017 32445 ft 506 kts 148°
2026-05-05 00:49 32.00604 -83.59535 32691 ft 507 kts 148°
2026-05-05 00:49 31.97770 -83.57048 32948 ft 508 kts 148°
2026-05-05 00:49 31.94931 -83.54557 33197 ft 509 kts 148°
2026-05-05 00:50 31.92122 -83.52088 33446 ft 510 kts 148°
2026-05-05 00:50 31.89277 -83.49590 33693 ft 511 kts 148°
2026-05-05 00:50 31.86417 -83.47083 33943 ft 512 kts 148°
2026-05-05 00:50 31.83557 -83.44573 34177 ft 514 kts 148°
2026-05-05 00:51 31.80690 -83.42059 34387 ft 514 kts 148°
2026-05-05 00:51 31.77817 -83.39541 34627 ft 514 kts 148°
2026-05-05 00:51 31.74948 -83.37035 34866 ft 514 kts 148°
2026-05-05 00:51 31.72078 -83.34532 35108 ft 514 kts 148°
2026-05-05 00:52 31.69202 -83.32024 35339 ft 514 kts 148°
2026-05-05 00:52 31.66334 -83.29524 35563 ft 514 kts 148°
2026-05-05 00:52 31.63394 -83.27133 35782 ft 510 kts 155°
2026-05-05 00:52 31.60271 -83.25222 35974 ft 504 kts 161°
2026-05-05 00:53 31.57104 -83.23451 36058 ft 504 kts 161°
2026-05-05 00:53 31.50816 -83.19925 35407 ft 499 kts 161°
2026-05-05 00:53 31.47696 -83.18176 35116 ft 495 kts 161°
2026-05-05 00:54 31.44568 -83.16433 35028 ft 500 kts 161°
2026-05-05 00:54 31.38232 -83.12917 35044 ft 506 kts 161°
2026-05-05 00:55 31.31915 -83.09383 35040 ft 506 kts 161°
2026-05-05 00:55 31.25548 -83.05832 35036 ft 506 kts 161°
2026-05-05 00:56 31.19195 -83.02300 35048 ft 506 kts 161°
2026-05-05 00:56 31.12834 -82.98763 35050 ft 506 kts 161°
2026-05-05 00:57 31.06478 -82.95243 35050 ft 506 kts 161°
2026-05-05 00:57 31.00124 -82.91726 35048 ft 505 kts 161°
2026-05-05 00:58 30.93766 -82.88218 35049 ft 505 kts 161°
2026-05-05 00:58 30.87577 -82.84230 35037 ft 515 kts 148°
2026-05-05 00:59 30.81946 -82.79128 35040 ft 516 kts 147°
2026-05-05 00:59 30.76266 -82.73996 35033 ft 516 kts 147°
2026-05-05 01:00 30.70592 -82.68881 35036 ft 516 kts 147°
2026-05-05 01:00 30.64911 -82.63772 35050 ft 516 kts 147°
2026-05-05 01:01 30.59235 -82.58681 35046 ft 516 kts 147°
2026-05-05 01:01 30.53555 -82.53583 35056 ft 516 kts 147°
2026-05-05 01:02 30.47880 -82.48491 35068 ft 516 kts 147°
2026-05-05 01:02 30.42195 -82.43389 35071 ft 516 kts 147°
2026-05-05 01:03 30.36516 -82.38319 35079 ft 515 kts 148°
2026-05-05 01:03 30.30833 -82.33266 35076 ft 515 kts 148°
2026-05-05 01:04 30.25188 -82.28239 35073 ft 514 kts 148°
2026-05-05 01:04 30.19119 -82.24156 35067 ft 497 kts 166°
2026-05-05 01:04 30.15865 -82.22926 35065 ft 488 kts 174°
2026-05-05 01:05 30.09246 -82.21544 35066 ft 482 kts 179°
2026-05-05 01:05 30.02621 -82.20239 35060 ft 483 kts 178°
2026-05-05 01:06 29.96001 -82.18926 35004 ft 485 kts 178°
2026-05-05 01:06 29.92640 -82.18265 34030 ft 495 kts 178°
2026-05-05 01:06 29.89219 -82.17594 33289 ft 496 kts 178°
2026-05-05 01:07 29.85838 -82.16914 32858 ft 489 kts 178°
2026-05-05 01:07 29.82497 -82.16237 32272 ft 484 kts 178°
2026-05-05 01:07 29.79171 -82.15563 31545 ft 485 kts 178°
2026-05-05 01:07 29.75865 -82.14899 30955 ft 482 kts 178°
2026-05-05 01:08 29.72589 -82.14252 30234 ft 483 kts 178°
2026-05-05 01:08 29.69288 -82.13603 29651 ft 480 kts 178°
2026-05-05 01:08 29.67067 -82.13165 29278 ft 480 kts 178°
2026-05-05 01:08 29.63774 -82.12517 28718 ft 480 kts 178°
2026-05-05 01:09 29.59404 -82.11656 27971 ft 482 kts 177°
2026-05-05 01:09 29.57173 -82.11215 27601 ft 483 kts 177°
2026-05-05 01:09 29.53850 -82.10554 27044 ft 484 kts 176°
2026-05-05 01:09 29.50532 -82.09891 26501 ft 485 kts 176°
2026-05-05 01:10 29.47196 -82.09226 25940 ft 487 kts 176°
2026-05-05 01:10 29.43851 -82.08559 25337 ft 488 kts 176°
2026-05-05 01:10 29.40495 -82.07897 24745 ft 490 kts 175°
2026-05-05 01:10 29.37130 -82.07236 24150 ft 491 kts 175°
2026-05-05 01:11 29.33754 -82.06571 23533 ft 493 kts 175°
2026-05-05 01:11 29.30420 -82.05575 22877 ft 500 kts 163°
2026-05-05 01:11 29.27317 -82.03832 22289 ft 505 kts 155°
2026-05-05 01:11 29.24253 -82.01907 21680 ft 493 kts 154°
2026-05-05 01:12 29.21361 -82.00074 21217 ft 459 kts 154°
2026-05-05 01:12 29.18669 -81.98364 20891 ft 427 kts 155°
2026-05-05 01:12 29.16151 -81.96769 20482 ft 402 kts 155°
2026-05-05 01:12 29.13744 -81.95252 19743 ft 390 kts 155°
2026-05-05 01:13 29.11389 -81.93776 18977 ft 380 kts 155°
2026-05-05 01:13 29.09093 -81.92342 18370 ft 370 kts 155°
2026-05-05 01:13 29.06885 -81.90832 18143 ft 374 kts 147°
2026-05-05 01:13 29.04894 -81.88896 17633 ft 377 kts 139°
2026-05-05 01:14 29.03000 -81.86859 17271 ft 372 kts 139°
2026-05-05 01:14 29.01121 -81.84826 16781 ft 371 kts 139°
2026-05-05 01:14 28.99264 -81.82817 16446 ft 365 kts 139°
2026-05-05 01:14 28.97532 -81.80702 16022 ft 364 kts 129°
2026-05-05 01:15 28.96009 -81.78412 15613 ft 362 kts 128°
2026-05-05 01:15 28.94493 -81.76146 15089 ft 354 kts 129°
2026-05-05 01:15 28.93005 -81.73938 14552 ft 348 kts 129°
2026-05-05 01:15 28.91530 -81.71763 14152 ft 346 kts 129°
2026-05-05 01:16 28.90065 -81.69601 13727 ft 343 kts 128°
2026-05-05 01:16 28.88615 -81.67458 13297 ft 340 kts 128°
2026-05-05 01:16 28.87166 -81.65336 12899 ft 340 kts 129°
2026-05-05 01:16 28.85714 -81.63208 12559 ft 337 kts 129°
2026-05-05 01:17 28.84290 -81.61097 12563 ft 336 kts 128°
2026-05-05 01:17 28.82869 -81.58985 12557 ft 336 kts 128°
2026-05-05 01:17 28.81472 -81.56909 12544 ft 322 kts 129°
2026-05-05 01:17 28.80051 -81.54986 12542 ft 314 kts 137°
2026-05-05 01:18 28.78341 -81.53466 12544 ft 311 kts 150°
2026-05-05 01:18 28.76440 -81.52305 12550 ft 310 kts 154°
2026-05-05 01:18 28.74517 -81.51159 12149 ft 315 kts 154°
2026-05-05 01:18 28.72586 -81.50005 11838 ft 311 kts 154°
2026-05-05 01:19 28.70712 -81.48881 11240 ft 305 kts 154°
2026-05-05 01:19 28.68838 -81.47758 10772 ft 305 kts 154°
2026-05-05 01:19 28.66952 -81.46627 10380 ft 305 kts 154°
2026-05-05 01:19 28.65074 -81.45502 9960 ft 306 kts 154°
2026-05-05 01:20 28.63206 -81.44383 9656 ft 301 kts 154°
2026-05-05 01:20 28.61361 -81.43299 9398 ft 294 kts 158°
2026-05-05 01:20 28.59460 -81.42669 9243 ft 273 kts 175°
2026-05-05 01:20 28.57628 -81.42461 8833 ft 259 kts 177°
2026-05-05 01:21 28.55857 -81.42414 8424 ft 251 kts 183°
2026-05-05 01:21 28.54116 -81.42423 8299 ft 249 kts 182°
2026-05-05 01:21 28.52384 -81.42421 8074 ft 248 kts 182°
2026-05-05 01:21 28.50662 -81.42418 7789 ft 247 kts 182°
2026-05-05 01:22 28.48948 -81.42415 7496 ft 245 kts 182°
2026-05-05 01:22 28.47253 -81.42414 7203 ft 243 kts 182°
2026-05-05 01:22 28.45567 -81.42412 6910 ft 241 kts 182°
2026-05-05 01:22 28.43889 -81.42412 6612 ft 240 kts 182°
2026-05-05 01:23 28.42225 -81.42414 6316 ft 239 kts 182°
2026-05-05 01:23 28.40566 -81.42416 6017 ft 238 kts 182°
2026-05-05 01:23 28.38917 -81.42416 5720 ft 237 kts 181°
2026-05-05 01:23 28.37294 -81.42413 5387 ft 237 kts 181°
2026-05-05 01:24 28.35644 -81.42406 5048 ft 237 kts 181°
2026-05-05 01:24 28.33965 -81.42403 4707 ft 238 kts 180°
2026-05-05 01:24 28.32311 -81.42404 4396 ft 237 kts 179°
2026-05-05 01:24 28.30666 -81.42407 4099 ft 236 kts 178°
2026-05-05 01:25 28.29032 -81.42406 3816 ft 234 kts 176°
2026-05-05 01:25 28.27475 -81.42056 3497 ft 230 kts 154°
2026-05-05 01:25 28.26156 -81.41101 3254 ft 223 kts 134°
2026-05-05 01:25 28.25257 -81.39744 3137 ft 209 kts 115°
2026-05-05 01:26 28.24777 -81.38212 3048 ft 204 kts 103°
2026-05-05 01:26 28.24829 -81.36647 3010 ft 202 kts 69°
2026-05-05 01:26 28.25573 -81.35291 3019 ft 205 kts 55°
2026-05-05 01:26 28.26458 -81.34025 3022 ft 204 kts 53°
2026-05-05 01:27 28.27331 -81.32818 3026 ft 187 kts 53°
2026-05-05 01:27 28.28226 -81.31874 2984 ft 173 kts 25°
2026-05-05 01:27 28.29385 -81.31944 2836 ft 172 kts 337°
2026-05-05 01:27 28.30424 -81.32530 2609 ft 162 kts 352°
2026-05-05 01:28 28.31501 -81.32462 2293 ft 154 kts 13°
2026-05-05 01:28 28.32579 -81.32469 2046 ft 155 kts 358°
2026-05-05 01:28 28.33660 -81.32681 2001 ft 159 kts 359°
2026-05-05 01:28 28.34758 -81.32730 1860 ft 157 kts
2026-05-05 01:29 28.35866 -81.32751 1448 ft 162 kts
2026-05-05 01:29 28.36989 -81.32748 1084 ft 158 kts
2026-05-05 01:29 28.38058 -81.32640 815 ft 151 kts 10°
2026-05-05 01:29 28.39070 -81.32664 666 ft 153 kts 360°
2026-05-05 01:30 28.40114 -81.32668 397 ft 152 kts
2026-05-05 01:30 28.41168 -81.32668 224 ft 152 kts
2026-05-05 01:30 28.42189 -81.32664 99 ft 125 kts 359°
2026-05-05 01:30 28.42751 -81.32662 101 ft 37 kts
2026-05-05 01:31 28.42864 -81.32657 102 ft 11 kts
2026-05-05 01:31 28.42964 -81.32643 101 ft 21 kts 31°
2026-05-05 01:31 28.43060 -81.32507 100 ft 22 kts 83°
2026-05-05 01:31 28.43063 -81.32343 101 ft 18 kts 94°
2026-05-05 01:32 28.43061 -81.32321 100 ft 0 kts 97°
2026-05-05 01:32 28.43059 -81.32301 98 ft 8 kts 97°
2026-05-05 01:33 28.43053 -81.32216 97 ft 11 kts 90°
2026-05-05 01:33 28.43053 -81.32126 97 ft 11 kts 90°
2026-05-05 01:33 28.43053 -81.32043 98 ft 10 kts 90°
2026-05-05 01:33 28.43053 -81.31967 98 ft 9 kts 89°
2026-05-05 01:34 28.43035 -81.31903 98 ft 8 kts 115°
2026-05-05 01:34 28.43008 -81.31847 98 ft 8 kts 119°
2026-05-05 01:34 28.42983 -81.31795 98 ft 7 kts 118°
2026-05-05 01:34 28.42957 -81.31747 98 ft 7 kts 122°
2026-05-05 01:35 28.42940 -81.31696 97 ft 8 kts 93°
2026-05-05 01:35 28.42946 -81.31627 96 ft 10 kts 76°
2026-05-05 01:35 28.42949 -81.31555 94 ft 8 kts 120°
2026-05-05 01:35 28.42911 -81.31550 96 ft 5 kts 194°
2026-05-05 01:36 28.42886 -81.31555 94 ft 0 kts 189°